TimeCDT,TemperatureF,Dew PointF,Humidity,Sea Level PressureIn,VisibilityMPH,Wind Direction,Wind SpeedMPH,Gust SpeedMPH,PrecipitationIn,Events,Conditions,WindDirDegrees,DateUTC
12:38 AM,75.2,71.6,89,29.92,10.0,South,8.1,-,N/A,,Mostly Cloudy,170,2013-10-05 05:38:00
12:58 AM,75.4,71.1,86,29.89,10.0,South,10.4,-,N/A,,Overcast,170,2013-10-05 05:58:00
1:58 AM,74.8,71.1,88,29.89,10.0,South,6.9,-,N/A,,Mostly Cloudy,170,2013-10-05 06:58:00
2:23 AM,73.4,71.6,94,29.91,10.0,South,6.9,-,N/A,,Scattered Clouds,170,2013-10-05 07:23:00
2:58 AM,74.1,71.1,90,29.88,10.0,South,6.9,-,N/A,,Partly Cloudy,170,2013-10-05 07:58:00
3:48 AM,75.2,71.6,89,29.91,10.0,SSW,5.8,-,N/A,,Mostly Cloudy,200,2013-10-05 08:48:00
3:58 AM,74.7,71.2,89,29.89,10.0,South,5.8,-,N/A,,Mostly Cloudy,180,2013-10-05 08:58:00
4:58 AM,74.7,71.2,89,29.89,10.0,South,6.9,-,N/A,,Overcast,180,2013-10-05 09:58:00
5:58 AM,72.1,70.0,93,29.89,10.0,SSE,4.6,-,N/A,,Overcast,160,2013-10-05 10:58:00
6:13 AM,71.6,69.8,94,29.91,10.0,SSE,4.6,-,N/A,,Overcast,160,2013-10-05 11:13:00
6:55 AM,73.4,69.8,88,29.92,10.0,South,4.6,-,N/A,,Mostly Cloudy,180,2013-10-05 11:55:00
6:58 AM,72.5,70.5,93,29.90,10.0,South,4.6,-,N/A,,Mostly Cloudy,190,2013-10-05 11:58:00
7:18 AM,73.4,69.8,88,29.92,10.0,South,5.8,-,N/A,,Scattered Clouds,190,2013-10-05 12:18:00
7:54 AM,71.6,69.8,94,29.93,10.0,South,4.6,-,N/A,,Partly Cloudy,180,2013-10-05 12:54:00
7:58 AM,72.3,70.2,93,29.91,10.0,South,4.6,-,N/A,,Partly Cloudy,170,2013-10-05 12:58:00
8:58 AM,74.7,71.1,88,29.92,10.0,South,11.5,-,N/A,,Partly Cloudy,180,2013-10-05 13:58:00
9:58 AM,76.1,69.8,81,29.94,10.0,South,10.4,-,N/A,,Scattered Clouds,190,2013-10-05 14:58:00
10:18 AM,78.8,69.8,74,29.96,10.0,South,12.7,-,N/A,,Mostly Cloudy,170,2013-10-05 15:18:00
10:43 AM,78.8,68.0,69,29.96,10.0,South,9.2,-,N/A,,Scattered Clouds,180,2013-10-05 15:43:00
10:58 AM,80.8,69.3,68,29.95,10.0,South,9.2,-,N/A,,Scattered Clouds,170,2013-10-05 15:58:00
11:58 AM,80.4,67.6,65,29.97,10.0,WSW,2.3,-,N/A,,Partly Cloudy,240,2013-10-05 16:58:00
12:58 PM,84.0,66.2,55,29.96,10.0,Variable,1.2,-,N/A,,Clear,0,2013-10-05 17:58:00
1:58 PM,84.0,65.3,53,29.93,10.0,Calm,Calm,-,N/A,,Partly Cloudy,0,2013-10-05 18:58:00
2:58 PM,86.0,64.9,49,29.91,10.0,Variable,2.3,-,N/A,,Clear,0,2013-10-05 19:58:00
3:58 PM,88.0,65.7,47,29.89,10.0,East,5.8,-,N/A,,Clear,100,2013-10-05 20:58:00
4:58 PM,87.4,64.2,46,29.88,10.0,North,1.2,-,N/A,,Clear,10,2013-10-05 21:58:00
5:58 PM,86.9,64.4,47,29.88,10.0,NNE,4.6,-,N/A,,Clear,30,2013-10-05 22:58:00
6:58 PM,81.1,61.2,51,29.91,10.0,North,12.7,-,N/A,,Clear,10,2013-10-05 23:58:00
7:58 PM,74.1,54.9,51,29.95,10.0,North,16.1,20.7,N/A,,Clear,10,2013-10-06 00:58:00
8:58 PM,70.7,52.2,52,29.98,10.0,NNE,13.8,-,N/A,,Partly Cloudy,30,2013-10-06 01:58:00
9:58 PM,67.5,49.1,52,30.00,10.0,NNE,15.0,21.9,N/A,,Partly Cloudy,20,2013-10-06 02:58:00
10:58 PM,64.4,47.3,54,30.02,10.0,North,17.3,25.3,N/A,,Clear,360,2013-10-06 03:58:00
11:58 PM,64.0,42.1,45,30.02,10.0,North,12.7,21.9,N/A,,Mostly Cloudy,10,2013-10-06 04:58:00